CDT,Max TemperatureF,Mean TemperatureF,Min TemperatureF,Max Dew PointF,MeanDew PointF,Min DewpointF,Max Humidity, Mean Humidity, Min Humidity, Max Sea Level PressureIn, Mean Sea Level PressureIn, Min Sea Level PressureIn, Max VisibilityMiles, Mean VisibilityMiles, Min VisibilityMiles, Max Wind SpeedMPH, Mean Wind SpeedMPH, Max Gust SpeedMPH,PrecipitationIn, CloudCover, Events, WindDirDegrees
2011-10-1,60,48,37,39,35,30,100,71,31,30.37,30.30,30.24,10,10,10,9,5,,0.00,0,,5
2011-10-2,69,50,32,45,36,28,100,68,23,30.30,30.24,30.18,10,9,1,9,2,,0.00,0,,290
2011-10-3,73,52,44,46,43,39,93,83,36,30.25,30.21,30.18,10,10,10,6,0,,0.00,0,,39
2011-10-4,46,42,42,45,43,41,100,95,93,30.30,30.30,30.29,10,10,10,0,0,,0.00,0,,-1
2011-10-5,80,61,42,45,41,37,100,49,21,30.23,30.20,30.17,10,10,10,10,4,,0.00,0,,184
2011-10-6,44,44,44,45,43,43,100,95,93,30.22,30.22,30.22,10,8,7,0,0,,0.00,0,,-1
2011-10-7,80,68,60,52,50,48,68,56,32,30.24,30.23,30.20,10,10,10,16,6,26,0.00,0,,193
2011-10-8,62,61,60,52,52,52,72,71,68,30.24,30.23,30.23,10,10,10,6,4,,0.00,0,,193
2011-10-9,53,53,51,46,46,45,77,76,76,30.31,30.31,30.31,10,10,10,0,0,,0.00,0,,-1
2011-10-10,46,46,44,45,45,45,100,96,93,30.20,30.20,30.20,2,2,1,0,0,,0.00,0,,-1
2011-10-11,75,53,53,55,51,48,88,73,50,30.02,29.99,29.93,10,10,10,10,2,,0.00,7,,220
2011-10-12,71,62,53,59,57,52,94,83,57,29.87,29.71,29.63,10,8,0,10,4,,0.47,7,,94
2011-10-13,60,60,59,59,58,57,94,92,88,29.63,29.58,29.55,10,6,4,10,6,,0.27,8,,149
2011-10-14,60,53,46,41,37,30,81,54,34,29.61,29.58,29.55,10,10,10,25,15,33,0.00,4,,295
2011-10-15,46,46,46,37,36,36,71,68,66,29.75,29.75,29.75,10,10,10,16,15,20,0.00,0,,280
2011-10-16,48,48,48,43,42,41,82,80,76,29.80,29.79,29.77,10,10,10,4,1,,0.00,7,,250
2011-10-17,57,49,41,30,28,25,65,44,29,29.83,29.80,29.77,10,10,10,22,12,28,0.00,0,,273
2011-10-18,51,44,37,37,33,28,75,63,54,29.90,29.85,29.79,10,10,10,13,5,18,0.00,4,,330
2011-10-19,48,44,39,37,35,34,81,68,58,29.90,29.86,29.78,10,10,10,23,13,32,0.00,7,,7
2011-10-20,51,46,42,34,32,30,66,60,47,29.88,29.73,29.67,10,10,10,24,18,31,0.00,7,,342
2011-10-21,57,44,30,34,30,25,93,68,29,30.07,30.02,29.92,10,10,10,10,4,,0.00,0,,284
2011-10-22,64,50,35,36,33,28,87,58,32,30.04,30.02,30.00,10,10,10,7,1,,0.00,0,,329
2011-10-23,64,48,32,50,38,30,93,69,37,30.00,29.91,29.79,10,10,3,16,3,31,0.14,4,,223
2011-10-24,64,52,39,46,39,30,100,73,30,30.08,30.02,29.90,10,10,7,16,5,22,0.00,1,,274
2011-10-25,66,57,48,52,45,37,87,67,49,30.04,29.87,29.74,10,10,7,20,5,25,0.02,6,,101
2011-10-26,50,46,39,45,38,30,100,78,53,30.01,29.96,29.88,10,9,4,16,11,24,0.00,7,,8
2011-10-27,51,43,35,37,34,30,100,73,44,30.13,30.04,29.99,10,10,10,15,2,21,0.00,5,,292
2011-10-28,55,42,30,39,31,21,100,73,26,30.14,30.08,30.00,10,9,0,13,2,16,0.01,3,,217
2011-10-29,53,42,30,36,28,19,100,66,26,30.08,30.04,29.99,10,10,2,12,2,,0.00,1,,303
2011-10-30,51,42,33,43,33,25,81,62,43,30.07,29.93,29.81,10,10,7,17,7,23,0.01,7,,183
2011-10-31,46,42,39,37,36,34,81,72,62,30.09,30.01,29.92,10,10,10,9,4,,0.00,7,,254